• In Romania
  • List of Countries
  • For 7 days
  • Water Temperature
  • Satellite Maps
  • Weather Map
  • Weather Widgets
  • user-avatar
    Login

    Hourly Weather Ahtopol

    Today, 21 October, Saturday

    Time Temperature Precipitation Wind Pressure Humidity
    00:00 +19°C° 0 mm 1 mps 761 mmHg 48%
    01:00 +19°C° 0 mm 1 mps 761 mmHg 49%
    02:00 +18°C° 0 mm 1 mps 761 mmHg 50%
    03:00 +18°C° 0 mm 1 mps 761 mmHg 51%
    04:00 +18°C° 0 mm 1 mps 761 mmHg 52%
    05:00 +16°C° 0 mm 1 mps 761 mmHg 52%
    06:00 +18°C° 0 mm 1 mps 761 mmHg 51%
    07:00 +19°C° 0 mm 1 mps 761 mmHg 50%
    08:00 +20°C° 0 mm 1 mps 761 mmHg 49%
    09:00 +22°C° 0 mm 1 mps 761 mmHg 43%
    10:00 +24°C° 0 mm 1 mps 761 mmHg 37%
    11:00 +26°C° 0 mm 1 mps 761 mmHg 31%
    12:00 +27°C° 0 mm 1 mps 760 mmHg 29%
    13:00 +27°C° 0 mm 1 mps 760 mmHg 27%
    14:00 +28°C° 0 mm 1 mps 760 mmHg 26%
    15:00 +27°C° 0 mm 1 mps 759 mmHg 29%
    16:00 +25°C° 0 mm 2 mps 759 mmHg 32%
    17:00 +24°C° 0 mm 2 mps 759 mmHg 36%
    18:00 +23°C° 0 mm 2 mps 759 mmHg 38%
    19:00 +21°C° 0 mm 2 mps 759 mmHg 40%
    20:00 +21°C° 0 mm 1 mps 759 mmHg 42%
    21:00 +19°C° 0 mm 2 mps 759 mmHg 43%
    22:00 +19°C° 0 mm 2 mps 759 mmHg 44%
    23:00 +18°C° 0 mm 2 mps 759 mmHg 45%

    Tomorrow, 22 October, Sunday

    Time Temperature Precipitation Wind Pressure Humidity
    00:00 +18°C° 0 mm 2 mps 759 mmHg 46%
    01:00 +18°C° 0 mm 2 mps 759 mmHg 46%
    02:00 +17°C° 0 mm 2 mps 758 mmHg 47%
    03:00 +17°C° 0 mm 2 mps 758 mmHg 49%
    04:00 +17°C° 0 mm 2 mps 758 mmHg 51%
    05:00 +17°C° 0 mm 2 mps 758 mmHg 52%
    06:00 +17°C° 0 mm 2 mps 758 mmHg 53%
    07:00 +18°C° 0 mm 2 mps 758 mmHg 53%
    08:00 +18°C° 0 mm 2 mps 759 mmHg 53%
    09:00 +20°C° 0 mm 3 mps 759 mmHg 48%
    10:00 +21°C° 0 mm 3 mps 759 mmHg 44%
    11:00 +23°C° 0 mm 4 mps 759 mmHg 40%
    12:00 +24°C° 0 mm 3 mps 759 mmHg 39%
    13:00 +24°C° 0 mm 3 mps 759 mmHg 38%
    14:00 +25°C° 0 mm 3 mps 759 mmHg 37%
    15:00 +22°C° 0 mm 3 mps 759 mmHg 43%
    16:00 +21°C° 0 mm 3 mps 759 mmHg 49%
    17:00 +20°C° 0 mm 4 mps 759 mmHg 55%
    18:00 +19°C° 0 mm 3 mps 759 mmHg 62%
    19:00 +17°C° 0 mm 3 mps 759 mmHg 70%
    20:00 +16°C° 0 mm 3 mps 760 mmHg 77%
    21:00 +16°C° 0 mm 3 mps 760 mmHg 80%
    22:00 +16°C° 0 mm 3 mps 760 mmHg 83%
    23:00 +14°C° 0 mm 3 mps 760 mmHg 85%

    Day after tomorrow, 23 October, Monday

    Time Temperature Precipitation Wind Pressure Humidity
    00:00 +14°C° 0 mm 3 mps 759 mmHg 87%
    01:00 +14°C° 0 mm 3 mps 759 mmHg 89%
    02:00 +14°C° 0 mm 3 mps 759 mmHg 91%
    03:00 +14°C° 0 mm 3 mps 758 mmHg 92%
    04:00 +14°C° 0 mm 3 mps 758 mmHg 93%
    05:00 +14°C° 0 mm 3 mps 757 mmHg 94%
    06:00 +14°C° 0 mm 4 mps 757 mmHg 91%
    07:00 +15°C° 0 mm 4 mps 757 mmHg 89%
    08:00 +15°C° 0 mm 4 mps 757 mmHg 86%
    09:00 +16°C° 0 mm 5 mps 756 mmHg 80%
    10:00 +17°C° 0 mm 5 mps 756 mmHg 74%
    11:00 +19°C° 0 mm 5 mps 756 mmHg 68%
    12:00 +20°C° 0 mm 5 mps 755 mmHg 67%
    13:00 +20°C° 0 mm 5 mps 755 mmHg 66%
    14:00 +20°C° 0 mm 5 mps 754 mmHg 65%
    15:00 +19°C° 0.1 mm 5 mps 754 mmHg 70%
    16:00 +19°C° 0.1 mm 5 mps 754 mmHg 74%
    17:00 +17°C° 0.1 mm 5 mps 753 mmHg 79%
    18:00 +17°C° 0.1 mm 5 mps 753 mmHg 83%
    19:00 +16°C° 0.1 mm 5 mps 753 mmHg 86%
    20:00 +16°C° 0.1 mm 5 mps 753 mmHg 89%
    21:00 +15°C° 0 mm 4 mps 753 mmHg 90%
    22:00 +15°C° 0 mm 4 mps 753 mmHg 91%
    23:00 +15°C° 0 mm 4 mps 752 mmHg 92%

    24 October, Tuesday

    Time Temperature Precipitation Wind Pressure Humidity
    00:00 +15°C° 0 mm 4 mps 752 mmHg 92%
    01:00 +15°C° 0 mm 4 mps 752 mmHg 92%
    02:00 +15°C° 0 mm 4 mps 751 mmHg 92%
    03:00 +15°C° 0.1 mm 4 mps 751 mmHg 92%
    04:00 +15°C° 0.1 mm 4 mps 751 mmHg 92%
    05:00 +15°C° 0.1 mm 5 mps 751 mmHg 92%
    06:00 +15°C° 0.2 mm 5 mps 751 mmHg 90%
    07:00 +16°C° 0.2 mm 5 mps 752 mmHg 87%
    08:00 +16°C° 0.2 mm 5 mps 752 mmHg 85%
    09:00 +16°C° 0.9 mm 5 mps 752 mmHg 83%
    10:00 +17°C° 0.9 mm 4 mps 752 mmHg 82%
    11:00 +18°C° 0.9 mm 4 mps 752 mmHg 80%
    12:00 +17°C° 0.3 mm 5 mps 752 mmHg 75%
    13:00 +19°C° 0.3 mm 5 mps 752 mmHg 70%
    14:00 +20°C° 0.3 mm 6 mps 752 mmHg 66%
    15:00 +20°C° 0.2 mm 6 mps 753 mmHg 71%
    16:00 +18°C° 0.2 mm 7 mps 753 mmHg 76%
    17:00 +17°C° 0.2 mm 7 mps 753 mmHg 82%
    18:00 +17°C° 0.5 mm 7 mps 754 mmHg 84%
    19:00 +17°C° 0.5 mm 8 mps 754 mmHg 86%
    20:00 +17°C° 0.5 mm 8 mps 755 mmHg 88%
    21:00 +17°C° 0.2 mm 9 mps 755 mmHg 88%
    22:00 +16°C° 0.2 mm 9 mps 755 mmHg 87%
    23:00 +16°C° 0.2 mm 9 mps 756 mmHg 86%

    25 October, Wednesday

    Time Temperature Precipitation Wind Pressure Humidity
    00:00 +16°C° 0.1 mm 9 mps 756 mmHg 86%
    01:00 +16°C° 0.1 mm 9 mps 756 mmHg 85%
    02:00 +15°C° 0.1 mm 9 mps 756 mmHg 84%
    03:00 +15°C° 0.2 mm 9 mps 757 mmHg 84%
    04:00 +13°C° 0.2 mm 9 mps 757 mmHg 83%
    05:00 +13°C° 0.2 mm 9 mps 757 mmHg 83%
    06:00 +12°C° 0.2 mm 10 mps 757 mmHg 82%
    07:00 +11°C° 0.2 mm 10 mps 758 mmHg 81%
    08:00 +11°C° 0.2 mm 10 mps 758 mmHg 80%
    09:00 +9°C° 0.5 mm 11 mps 758 mmHg 79%
    10:00 +8°C° 0.5 mm 11 mps 759 mmHg 78%
    11:00 +7°C° 0.5 mm 11 mps 759 mmHg 77%
    12:00 +7°C° 0.4 mm 11 mps 759 mmHg 75%
    13:00 +7°C° 0.4 mm 11 mps 759 mmHg 73%
    14:00 +7°C° 0.4 mm 11 mps 759 mmHg 71%
    15:00 +7°C° 0.6 mm 11 mps 760 mmHg 71%
    16:00 +7°C° 0.6 mm 10 mps 760 mmHg 72%
    17:00 +7°C° 0.6 mm 10 mps 761 mmHg 72%
    18:00 +6°C° 0.4 mm 10 mps 761 mmHg 74%
    19:00 +6°C° 0.4 mm 10 mps 762 mmHg 75%
    20:00 +5°C° 0.4 mm 10 mps 762 mmHg 76%
    21:00 +5°C° 0.1 mm 10 mps 762 mmHg 77%
    22:00 +5°C° 0.1 mm 10 mps 763 mmHg 77%
    23:00 +3°C° 0.1 mm 10 mps 763 mmHg 77%

    26 October, Thursday

    Time Temperature Precipitation Wind Pressure Humidity
    00:00 +3°C° 0 mm 10 mps 763 mmHg 77%
    01:00 +3°C° 0 mm 9 mps 764 mmHg 76%
    02:00 +3°C° 0 mm 9 mps 764 mmHg 75%
    03:00 +2°C° 0 mm 9 mps 764 mmHg 76%
    04:00 +2°C° 0 mm 8 mps 765 mmHg 76%
    05:00 +1°C° 0 mm 8 mps 765 mmHg 77%
    06:00 +2°C° 0 mm 8 mps 765 mmHg 75%
    07:00 +2°C° 0 mm 8 mps 766 mmHg 73%
    08:00 +2°C° 0 mm 8 mps 766 mmHg 71%
    09:00 +4°C° 0 mm 8 mps 766 mmHg 66%
    10:00 +6°C° 0 mm 8 mps 766 mmHg 60%
    11:00 +8°C° 0 mm 7 mps 766 mmHg 55%
    12:00 +9°C° 0 mm 7 mps 766 mmHg 53%
    13:00 +9°C° 0 mm 6 mps 766 mmHg 51%
    14:00 +10°C° 0 mm 6 mps 765 mmHg 49%
    15:00 +9°C° 0 mm 5 mps 765 mmHg 52%
    16:00 +9°C° 0 mm 5 mps 766 mmHg 55%
    17:00 +8°C° 0 mm 4 mps 766 mmHg 58%
    18:00 +7°C° 0 mm 4 mps 766 mmHg 61%
    19:00 +8°C° 0 mm 3 mps 766 mmHg 64%
    20:00 +7°C° 0 mm 3 mps 766 mmHg 68%
    21:00 +7°C° 0 mm 3 mps 766 mmHg 69%
    22:00 +6°C° 0 mm 2 mps 766 mmHg 71%
    23:00 +6°C° 0 mm 2 mps 766 mmHg 72%
    Show more